<?xml version="1.0"?>
<gpx xmlns="http://www.topografix.com/GPX/1/1" xmlns:xsi="http://www.w3.org/2001/XMLSchema-instance" version="1.1" creator="GPX RubyGem 1.0.0 -- http://dougfales.github.io/gpx/" xsi:schemaLocation="http://www.topografix.com/GPX/1/1 http://www.topografix.com/GPX/1/1/gpx.xsd">
  <metadata>
    <name/>
    <time>2026-05-08T12:50:33+00:00</time>
    <bound minlat="90.0" minlon="180.0" maxlat="-90.0" maxlon="-180.0"/>
  </metadata>
  <trk>
    <name/>
    <trkseg>
      <trkpt lat="44.901316" lon="6.217003">
        <time>1970-01-01T00:00:00+00:00</time>
        <ele>2339.0</ele>
      </trkpt>
      <trkpt lat="44.898246" lon="6.21975">
        <time>1970-01-01T00:00:00+00:00</time>
        <ele>2382.0</ele>
      </trkpt>
      <trkpt lat="44.898003" lon="6.221252">
        <time>1970-01-01T00:00:00+00:00</time>
        <ele>2437.0</ele>
      </trkpt>
      <trkpt lat="44.898155" lon="6.222882">
        <time>1970-01-01T00:00:00+00:00</time>
        <ele>2526.0</ele>
      </trkpt>
      <trkpt lat="44.898033" lon="6.229131">
        <time>1970-01-01T00:00:00+00:00</time>
        <ele>2764.0</ele>
      </trkpt>
      <trkpt lat="44.897425" lon="6.231706">
        <time>1970-01-01T00:00:00+00:00</time>
        <ele>2841.0</ele>
      </trkpt>
      <trkpt lat="44.896544" lon="6.233852">
        <time>1970-01-01T00:00:00+00:00</time>
        <ele>2935.0</ele>
      </trkpt>
      <trkpt lat="44.896361" lon="6.234024">
        <time>1970-01-01T00:00:00+00:00</time>
        <ele>2950.0</ele>
      </trkpt>
      <trkpt lat="44.896164" lon="6.234861">
        <time>1970-01-01T00:00:00+00:00</time>
        <ele>3004.0</ele>
      </trkpt>
      <trkpt lat="44.896848" lon="6.235869">
        <time>1970-01-01T00:00:00+00:00</time>
        <ele>3038.0</ele>
      </trkpt>
      <trkpt lat="44.897273" lon="6.237693">
        <time>1970-01-01T00:00:00+00:00</time>
        <ele>3131.0</ele>
      </trkpt>
      <trkpt lat="44.897304" lon="6.238272">
        <time>1970-01-01T00:00:00+00:00</time>
        <ele>3170.0</ele>
      </trkpt>
      <trkpt lat="44.897167" lon="6.239367">
        <time>1970-01-01T00:00:00+00:00</time>
        <ele>3235.0</ele>
      </trkpt>
      <trkpt lat="44.896923" lon="6.240179">
        <time>1970-01-01T00:00:00+00:00</time>
        <ele>3299.0</ele>
      </trkpt>
      <trkpt lat="44.897379" lon="6.240179">
        <time>1970-01-01T00:00:00+00:00</time>
        <ele>3297.0</ele>
      </trkpt>
      <trkpt lat="44.897845" lon="6.239739">
        <time>1970-01-01T00:00:00+00:00</time>
        <ele>3286.0</ele>
      </trkpt>
      <trkpt lat="44.898241" lon="6.239203">
        <time>1970-01-01T00:00:00+00:00</time>
        <ele>3288.0</ele>
      </trkpt>
      <trkpt lat="44.899517" lon="6.238559">
        <time>1970-01-01T00:00:00+00:00</time>
        <ele>3372.0</ele>
      </trkpt>
      <trkpt lat="44.899928" lon="6.238108">
        <time>1970-01-01T00:00:00+00:00</time>
        <ele>3400.0</ele>
      </trkpt>
      <trkpt lat="44.899821" lon="6.237701">
        <time>1970-01-01T00:00:00+00:00</time>
        <ele>3402.0</ele>
      </trkpt>
      <trkpt lat="44.900049" lon="6.236993">
        <time>1970-01-01T00:00:00+00:00</time>
        <ele>3418.0</ele>
      </trkpt>
    </trkseg>
  </trk>
</gpx>
